Location: Solon
(41.3849°N, 81.4081°W)
Time: 13:59:34
(UTC-04:00)

Daily predictions for brighter satellites

Satellite Brightness Start Highest point End
(mag) Time Altitude Azimuth Time Altitude Azimuth Time Altitude Azimuth
Cosmos 1891 Rocket 4.5 21:15:48 10° N 21:21:57 83° E 21:27:58 10° S
Envisat 3.8 21:18:21 10° SE 21:22:59 37° ENE 21:27:38 10° N
GEOS 3 Rocket 3.8 21:19:19 10° SE 21:24:33 71° NE 21:29:45 10° NNW
CZ-2D R/B 4.5 21:21:22 10° S 21:25:06 44° W 21:28:52 10° NNW
Milstar 3 Cent rocket 4.5 21:20:25 10° WSW 21:26:15 17° SW 21:30:24 10° S
FENGYUN 3A 4.3 21:27:57 10° S 21:33:13 58° W 21:38:34 10° NNW
Cosmos 1515 4.2 21:30:10 10° SSE 21:33:48 41° E 21:37:27 10° NNE
CZ-2C R/B 0.7 21:32:22 10° S 21:34:35 64° WSW 21:36:52 10° NNW
Cosmos 1602 Rocket 3.8 21:31:02 10° SSW 21:35:30 78° W 21:39:59 10° N
Cosmos 1603 4.3 21:33:02 10° SW 21:38:35 62° WNW 21:44:09 10° NNE
Cosmos 1825 Rocket 4.3 21:34:56 10° SSE 21:38:59 35° E 21:43:01 10° NNE
USA 186 3.9 21:41:51 10° SSW 21:43:54 19° W 21:45:53 10° NW
Cosmos 1943 Rocket 3.5 21:41:07 10° N 21:45:45 26° NE 21:50:21 10° ESE
ALOS 3.7 21:41:54 10° SSW 21:46:12 36° W 21:50:31 10° NNW
Cosmos 1812 Rocket 3.6 21:42:14 10° N 21:46:40 85° W 21:51:06 10° S
Lacrosse 4 Rocket 1.5 21:43:46 10° S 21:47:40 50° ESE 21:51:39 10° NE
Atlas Centaur 2 3.5 21:47:40 10° WSW 21:53:50 35° S 22:00:12 13° ESE
Cosmos 1992 Rocket 4.0 21:49:51 10° NNW 21:55:06 87° WSW 22:00:16 10° SSE
SeaSat 1 3.1 21:52:49 13° SE 21:56:58 44° ENE 22:01:40 10° NNW
Cosmos 1943 3.2 21:52:08 10° SSW 21:57:47 81° ESE 22:03:30 10° NNE
ISS -1.1 21:54:58 10° W 21:57:52 29° NNW 22:00:47 10° NE
Tsikada Rocket 4.4 21:51:57 10° SSW 21:58:20 71° W 22:04:43 10° N
H-2A R/B 2.6 21:54:30 10° S 21:58:43 60° WSW 22:03:05 10° NNW
deb Chang Zheng 4 4.4 22:01:23 10° N 22:05:40 53° WNW 22:09:54 10° SSW
USA 81 4.0 22:07:07 10° N 22:12:26 77° E 22:17:13 13° S
CZ-4B R/B 3.7 22:08:53 10° NNE 22:13:57 56° ESE 22:19:04 10° S
Cosmos 1953 3.9 22:12:35 10° NNE 22:15:37 20° ENE 22:17:07 17° ESE
Cosmos 1939 Rocket 3.8 22:13:14 10° S 22:17:14 47° W 22:21:14 10° NNW
PSLV R/B 3.3 22:15:26 10° W 22:18:59 80° S 22:21:15 21° ESE
Cosmos 2142 Rocket 4.5 22:14:09 10° N 22:20:27 84° E 22:25:55 14° S
Terra 3.4 22:19:03 15° ESE 22:21:29 21° ENE 22:25:01 10° NNE
ARGOS 3.5 22:18:01 19° SE 22:21:43 50° ENE 22:26:57 10° N
ATLAS 3B R/B 3.0 22:14:42 10° SW 22:22:26 85° WNW 22:30:01 10° NNE
Cosmos 1190 Rocket 4.2 22:17:30 10° SSW 22:22:48 76° WNW 22:28:09 10° NNE
Cosmos 1346 Rocket 2.7 22:19:41 10° S 22:23:35 88° E 22:27:33 10° N
SPOT 5 2.9 22:21:02 13° S 22:24:48 63° WSW 22:29:06 10° NNW
USA 245 4.1 22:21:15 18° SSE 22:25:27 67° ENE 22:30:10 10° N
Cosmos-2242 3.9 22:22:01 10° N 22:26:05 35° ENE 22:28:01 24° ESE
Cosmos 1842 3.9 22:25:38 26° SE 22:27:15 38° E 22:30:54 10° NNE
Cosmos 1634 Rocket 4.0 22:21:23 10° N 22:27:34 82° W 22:33:08 13° S
Cosmos 1953 Rocket 3.5 22:23:11 10° S 22:27:36 89° W 22:32:05 10° N
CZ-4 SHROUD 4.4 22:25:30 14° SSW 22:27:52 40° W 22:30:54 10° NNW
MetOp-B 4.2 22:24:18 16° SSE 22:28:40 83° WSW 22:34:04 10° NNW
PSLV R/B 4.3 22:26:37 16° SSW 22:28:51 41° W 22:31:50 10° NNW
Cosmos 1140 Rocket 4.1 22:26:31 21° SSE 22:29:21 36° E 22:34:07 10° NE
H-2A R/B 3.0 22:33:42 21° ESE 22:36:09 32° ENE 22:40:40 10° N
Lacrosse 5 4.5 22:33:45 10° NNW 22:36:28 14° N 22:39:11 10° NE
Meteor 1-21 4.2 22:31:59 13° S 22:37:13 75° E 22:43:02 10° NNE
SL-8 R/B 4.4 22:32:38 10° WNW 22:37:23 52° NNE 22:41:05 16° E
Cosmos 1607 4.3 22:32:57 13° S 22:38:03 41° ESE 22:43:49 10° NE
Cosmos 676 Rocket 4.0 22:34:58 10° SSW 22:40:19 88° WNW 22:45:41 10° NNE
Cosmos 2369 Rocket 2.9 22:34:57 10° NW 22:40:22 47° WSW 22:44:34 16° S
USA 234 3.6 22:37:09 18° ESE 22:42:11 63° NE 22:48:40 10° NW
SPOT 1/Viking Rocket 3.6 22:41:55 22° S 22:45:17 81° WSW 22:50:27 10° NNW
YAOGAN 6 3.0 22:43:54 26° S 22:45:50 63° W 22:49:34 10° NNW
Cosmos 2279 Rocket 4.0 22:39:51 10° N 22:46:08 82° E 22:50:14 23° S
Cosmos 1932 4.3 22:40:55 10° SSW 22:47:05 80° ESE 22:53:20 10° NE
Cosmos 1766 3.5 22:49:24 10° NNW 22:53:24 69° W 22:55:14 30° S
SL-08 RB Rocket 3.6 22:51:27 32° SSE 22:53:33 83° ENE 22:58:05 10° N
NOAA 11 4.1 22:51:03 27° SSE 22:54:08 88° ENE 22:59:35 10° NNW
SAR-Lupe-2 4.0 22:58:16 40° E 22:58:50 44° ENE 23:02:16 10° N
Cosmos 1340 4.3 23:00:50 20° ENE 23:00:50 20° ENE 23:03:12 10° NE
Cosmos 1758 Rocket 4.5 22:57:13 12° SSW 23:01:08 46° WNW 23:05:21 10° N
Cosmos 1544 4.3 22:58:22 10° NNE 23:01:40 28° ENE 23:01:55 28° E
CARTOSAT-1 3.9 23:02:00 39° SE 23:03:14 53° ENE 23:07:27 10° N
CZ-4C R/B 3.1 23:03:35 26° ESE 23:03:35 26° ESE 23:08:10 10° NE
Cosmos 1758 3.3 23:00:24 10° N 23:04:31 74° E 23:05:36 47° SSE
USA 238 DEB 3.7 23:02:54 10° SSW 23:10:01 88° ESE 23:17:07 10° NE
USA 238 3.7 23:03:00 10° SSW 23:10:06 87° ESE 23:17:12 10° NE
SL-27 R/B 3.2 23:10:37 25° SW 23:12:13 47° WNW 23:15:28 10° N
DMSP B5D2-2 4.1 23:11:13 10° NNE 23:16:26 60° E 23:18:08 40° SSE
Cosmos 1470 3.6 23:15:39 10° N 23:19:15 35° ENE 23:19:20 35° E
Cosmos 1805 3.2 23:15:51 10° N 23:19:49 84° W 23:20:29 60° S
IGS 5A 3.4 23:19:53 56° SE 23:20:37 70° ENE 23:24:46 10° N
COSMOS 2487 2.9 23:24:51 51° ENE 23:24:51 51° ENE 23:27:53 10° NNE
COSMOS 2406 3.3 23:21:23 16° SSW 23:26:02 77° WNW 23:31:48 10° NNE
Lacrosse 4 Rocket 4.3 23:24:06 10° W 23:26:42 16° NW 23:29:22 10° N
Cosmos 1943 Rocket 2.8 23:24:23 10° NW 23:29:42 47° WSW 23:31:53 31° SSW
Cosmos 1842 Rocket 3.5 23:27:55 10° N 23:32:20 86° W 23:33:07 60° S
Cosmos 2084 4.2 23:29:12 10° NW 23:33:06 39° WSW 23:33:35 37° SW
Cosmos 2082 Rocket 4.2 23:34:49 13° E 23:34:49 13° E 23:36:35 10° ENE
SeaSat 1 4.1 23:32:37 19° SW 23:34:38 25° WSW 23:38:40 10° NW
ISS -0.1 23:33:16 10° NW 23:35:06 14° N 23:36:56 10° NNE
Cosmos 1656 Rocket 3.6 23:30:52 10° NNW 23:36:35 87° WSW 23:38:15 48° SSE
Cosmos 2208 Rocket 4.2 23:36:57 10° NNW 23:42:02 59° WSW 23:43:24 44° SSW
Atlas Centaur 2 3.9 23:36:33 10° WSW 23:42:48 27° SSW 23:42:50 27° SSW
NOSS 3-2 (C) 3.6 23:43:08 45° SSE 23:44:19 51° ESE 23:50:40 10° NE
Cosmos 1707 3.0 23:50:19 58° ENE 23:50:19 58° ENE 23:53:45 10° NNE
Cosmos 1953 3.9 23:48:41 10° NNW 23:52:04 27° W 23:52:53 25° WSW
Geosat 4.4 23:48:05 10° NNE 23:53:04 61° WNW 23:55:55 25° SW
Cosmos 1076 Rocket 4.5 23:56:04 34° ENE 23:56:04 34° ENE 23:59:20 10° NNE
Lacrosse 5 rocket 4.4 23:54:28 10° N 23:56:02 12° NNE 23:57:38 10° NE
